Vorticity
8 9 9 8 8 7 7 7 5 5 8 8 6 3 3 9 10 8 5 4 2 2 2 2 3 4 4 4 5 3 3 4 3
7 6 8 7 7 7 6 6 7 7 5 1 3 8 12 8 4 2 2 2 3 3 3 4 4 4 4 3 4 4 4 3 4
6 5 8 6 11 8 8 5 3 1 3 9 14 9 4 2 2 3 3 3 3 3 4 4 4 4 5 5 5 4 4 4 4
5 6 5 10 1 3 1 2 6 9 10 6 3 3 3 3 2 1 3 3 4 5 4 6 6 5 5 5 6 6 6 5 4
3 4 5 5 13 9 10 10 8 5 3 3 4 2 1 1 2 2 3 5 5 5 4 3 4 4 5 6 6 5 6 6 7
2 3 4 4 3 5 3 3 2 4 4 3 1 1 1 1 2 3 6 6 5 4 3 3 5 6 6 6 6 6 6 6 6
1 2 3 6 5 4 3 4 4 4 1 1 1 1 1 1 4 6 6 4 4 4 4 4 6 5 5 5 5 5 5 6 6
1 2 2 2 5 5 5 5 3 1 1 1 1 1 1 3 6 6 4 3 3 3 4 5 5 3 3 4 4 4 5 5 6
2 1 2 2 2 4 4 2 1 1 0 1 2 1 2 4 6 4 2 2 4 5 7 4 3 3 3 4 5 4 4 4 4
3 2 1 2 2 2 3 2 1 1 2 1 2 2 4 6 6 5 4 5 6 8 3 2 4 5 5 7 8 7 6 5 4
3 2 2 2 2 2 3 2 2 1 1 2 2 6 7 5 5 4 4 4 8 2 4 6 7 8 10 11 10 11 11 10 9
3 2 2 2 2 2 2 2 1 2 2 2 8 7 4 4 4 4 4 8 6 4 7 7 12 12 7 6 6 7 7 7 8
8 4 3 3 3 2 2 2 3 3 2 8 6 3 4 5 6 5 6 9 2 6 7 12 7 7 7 6 7 8 8 8 9
7 9 8 6 4 3 3 2 2 4 7 5 3 3 5 7 6 7 11 3 5 8 10 8 7 5 5 7 7 7 7 7 7
8 6 5 7 9 9 9 8 7 8 6 3 2 4 7 7 8 12 4 4 8 11 8 6 5 4 5 6 6 8 7 7 7
5 8 9 6 5 5 7 8 7 6 5 3 4 8 10 10 11 4 4 6 8 9 6 4 4 4 4 4 5 7 8 8 8
5 3 3 4 6 7 6 5 4 2 2 6 9 10 10 9 4 3 5 9 11 7 5 5 4 4 5 4 3 5 7 9 9
6 5 6 5 4 4 3 3 4 6 9 10 7 8 8 5 2 5 7 9 10 6 4 4 4 5 5 5 4 4 5 7 9
1 6 7 6 6 8 8 8 8 9 8 8 8 7 6 2 3 7 10 10 8 5 4 3 4 4 4 4 5 6 4 4 7
5 -2 2 3 2 2 3 4 8 10 10 9 7 5 5 1 2 9 10 10 8 4 3 3 3 2 2 3 3 6 6 4 5
Height
5879 5881 5883 5885 5886 5888 5889 5890 5892 5894 5896 5897 5898 5898 5899 5899 5900 5900 5899 5899 5898 5897 5896 5894 5893 5892 5890 5888 5886 5884 5882 5880 5877
5879 5881 5883 5885 5887 5888 5890 5891 5893 5895 5897 5898 5899 5899 5900 5900 5901 5901 5901 5900 5900 5898 5897 5896 5895 5893 5892 5890 5887 5885 5883 5882 5880
5879 5881 5883 5885 5887 5889 5890 5892 5894 5896 5898 5899 5900 5900 5901 5901 5902 5902 5902 5902 5901 5899 5898 5897 5896 5894 5893 5891 5889 5886 5884 5882 5880
5879 5881 5884 5886 5888 5891 5891 5894 5895 5897 5899 5900 5901 5902 5902 5902 5903 5903 5903 5902 5901 5900 5899 5898 5897 5895 5894 5892 5890 5887 5885 5883 5881
5878 5881 5884 5886 5889 5891 5892 5894 5896 5898 5900 5901 5902 5902 5903 5903 5904 5904 5903 5903 5902 5902 5900 5899 5898 5896 5894 5893 5890 5888 5886 5884 5881
5877 5881 5884 5887 5889 5892 5893 5895 5897 5899 5900 5902 5903 5903 5904 5904 5904 5904 5904 5903 5903 5902 5901 5899 5899 5897 5895 5893 5891 5889 5887 5884 5882
5876 5880 5884 5887 5889 5892 5894 5895 5897 5899 5900 5902 5903 5904 5904 5904 5904 5904 5904 5903 5903 5902 5901 5899 5898 5896 5895 5893 5891 5889 5887 5885 5882
5875 5879 5883 5886 5888 5891 5894 5896 5896 5899 5900 5902 5903 5904 5904 5905 5904 5904 5904 5903 5903 5902 5901 5899 5898 5896 5895 5893 5891 5889 5887 5885 5882
5873 5877 5881 5884 5887 5890 5893 5895 5895 5897 5900 5902 5902 5903 5903 5904 5903 5903 5903 5903 5902 5901 5900 5899 5897 5896 5894 5893 5891 5889 5887 5885 5882
5869 5874 5879 5882 5885 5888 5891 5893 5894 5897 5898 5900 5901 5902 5902 5902 5903 5903 5902 5902 5901 5901 5899 5898 5897 5895 5893 5891 5890 5888 5886 5884 5881
5866 5871 5875 5879 5882 5885 5889 5891 5893 5895 5896 5898 5899 5900 5900 5901 5901 5901 5901 5901 5900 5899 5898 5897 5896 5894 5892 5890 5888 5887 5885 5883 5880
5863 5867 5871 5875 5879 5883 5886 5888 5891 5893 5895 5896 5897 5898 5899 5899 5899 5899 5899 5899 5898 5898 5897 5896 5895 5894 5892 5890 5888 5886 5884 5882 5879
5858 5863 5867 5871 5875 5878 5883 5885 5888 5890 5891 5893 5894 5895 5896 5897 5897 5897 5897 5897 5897 5897 5896 5895 5894 5893 5891 5889 5887 5885 5883 5880 5878
5853 5858 5862 5867 5870 5873 5878 5881 5884 5886 5887 5889 5891 5892 5893 5894 5894 5895 5895 5895 5896 5896 5895 5894 5893 5892 5890 5888 5886 5884 5882 5880 5877
5848 5853 5858 5862 5866 5869 5873 5876 5879 5882 5884 5886 5888 5889 5890 5891 5891 5892 5893 5893 5893 5894 5894 5893 5892 5891 5890 5888 5885 5883 5881 5879 5876
5844 5848 5852 5857 5860 5863 5868 5871 5874 5877 5880 5882 5883 5885 5886 5887 5888 5889 5890 5890 5891 5892 5892 5891 5891 5890 5888 5886 5884 5882 5880 5877 5875
5838 5842 5846 5851 5855 5859 5863 5866 5869 5873 5875 5877 5879 5881 5883 5883 5884 5885 5886 5887 5888 5889 5889 5889 5889 5888 5887 5885 5883 5881 5879 5877 5874
5832 5837 5841 5845 5849 5853 5857 5861 5864 5867 5870 5872 5875 5877 5878 5880 5881 5882 5882 5884 5885 5886 5886 5887 5887 5887 5885 5884 5881 5879 5877 5875 5873
5827 5830 5835 5839 5843 5847 5851 5855 5858 5861 5865 5867 5870 5872 5874 5875 5877 5877 5878 5880 5881 5883 5883 5883 5884 5884 5883 5882 5879 5877 5876 5874 5871
5819 5824 5828 5832 5837 5841 5845 5849 5852 5855 5858 5861 5864 5866 5868 5870 5872 5873 5874 5876 5877 5879 5880 5880 5880 5881 5880 5879 5877 5875 5874 5872 5869